sat.trackr.live / text

‹ back to catalog

STARLINK-33551

NORAD 62110 · 2024-220Y

PAYLOAD ACTIVE UNKNOWN

§ Identity

Operator
Country
US
Launch date
2024-11-25
Launch site
AFETR
Launch vehicle
Mass (kg)
RCS (m²)

Purposes: comms

External: N2YO · Heavens-Above · Gunter

§ Orbital elements

Epoch: 2026-05-25T00:20:44.211840Z

Period
94.27 min
Inclination
42.9982°
Eccentricity
0.0001382
Mean motion
15.27590206 rev/d
Perigee alt
482.1 km
Apogee alt
484.0 km
Semi-major
6,861.2 km
B*
5.7245e-4
RAAN
134.5412°
Arg perigee
251.0953°
Mean anomaly
108.9749°
Rev number
8,486

§ Raw data

STARLINK-335511 62110U 24220Y   26145.01440060  .00015529  00000+0  57245-3 0  99902 62110  42.9982 134.5412 0001382 251.0953 108.9749 15.27590206 84866

JSON: /api/v1/satellites/62110 · /tle

For live sub-satellite position, see the globe view (requires WebGL).

§ Visibility from observer

Set your observer location to see the next 7 days of passes ≥ 10°. The values pass through the URL so the page stays shareable.

No JS? Fill the form by hand. The geolocation button needs JavaScript.